RADUGA 25 [-]

Last updated on July 6, 2021, 3:35 p.m. UTC

1 20499U 90016A   21186.78182516 -.00000284  00000-0  00000-0 0  9991
2 20499  14.1529 348.5091 0005562 108.3555  64.8312  1.00320159114789
UTC
Height (km)
Latitude
Longitude
Inclination
Orbital Period
UTC large
Height (km)
Speed (km/s)
/
Latitude / Longitude
Inclination (degrees)
Orbital Period (minutes)
Azimuth
Elevation
Range (km)
Doppler Factor
iOS Compass Heading
iOS Angle